Location: Abundant Grace Fellowship
(35.0349°N, 90.0924°W)
Time: 22:01:52
(UTC+00:00)

Cosmos 2154 Rocket - Pass Details

Date: 18 January 2026
Orbit: 965 x 997 km, 82.9° (Epoch: 10 February)

Event Time Altitude Azimuth Distance (km) Brightness Sun altitude
Rises 11:05:18 0° 182° (S) 3,693 7.1 -24.7°
Reaches altitude 10° 11:07:49 10° 181° (S) 2,745 6.4 -24.1°
Maximum altitude 11:14:07 82° 95° (E) 1,000 4.0 -22.9°
Drops below altitude 10° 11:20:25 10° 8° (N) 2,740 6.3 -21.6°
Sets 11:22:55 0° 8° (N) 3,686 7.0 -21.1°
